This demonstration page uses our WeatherBlox Daily Observations layout. Learn more.

Left ArrowRight Arrow

39.01783, -85.05884

Hourly Observations for June 20, 2021

Temp ( °F °C ) Dew Point ( °F °C ) Humidity (%) Winds ( mph kmh ) Pressure ( in mb ) Visibility ( mi km ) Precip ( " mm )
12:52 am 00:52 Cloudy 74 23.3 68 20 82 82 SSW 6 9 29.81 1010 10 16 N/A
1:52 am 01:52 Mostly Cloudy 73 22.8 68 20 84 84 SSW 9 15 29.79 1009 10 16 N/A
2:52 am 02:52 Mostly Cloudy 73 22.8 67 19.4 81 81 SSW 7 11 29.78 1009 10 16 N/A
3:52 am 03:52 Mostly Cloudy 73 22.8 67 19.4 81 81 SW 7 11 29.79 1009 10 16 N/A
4:52 am 04:52 Cloudy 72 22.2 67 19.4 84 84 SSW 6 9 29.79 1009 10 16 N/A
5:52 am 05:52 Mostly Cloudy 71 21.7 67 19.4 87 87 SSW 7 11 29.80 1009 10 16 N/A
6:52 am 06:52 Mostly Cloudy 71 21.7 67 19.4 87 87 SSW 8 13 29.82 1010 10 16 N/A
7:52 am 07:52 Mostly Cloudy 73 22.8 67 19.4 81 81 SSW 10 17 29.79 1009 10 16 N/A
8:52 am 08:52 Mostly Cloudy 73 22.8 66 18.9 79 79 SW 9 15 29.81 1010 10 16 N/A
9:52 am 09:52 Partly Cloudy 77 25 68 20 74 74 SW 13 20 29.82 1010 10 16 N/A
10:52 am 10:52 Partly Cloudy 80 26.7 68 20 67 67 WSW 8 13 29.79 1009 10 16 N/A
11:52 am 11:52 Partly Cloudy 82 27.8 69 20.6 65 65 SW 8 13 29.79 1009 10 16 N/A
12:52 pm 12:52 Mostly Cloudy 83 28.3 69 20.6 63 63 SSW 9 15 29.78 1009 10 16 N/A
1:52 pm 13:52 Mostly Cloudy 84 28.9 70 21.1 63 63 SSW 10 17 29.76 1008 10 16 N/A
2:52 pm 14:52 Mostly Cloudy 84 28.9 70 21.1 63 63 SW 8 13 29.74 1007 10 16 N/A
3:52 pm 15:52 Mostly Cloudy 85 29.4 70 21.1 61 61 SW 7 11 29.73 1007 10 16 N/A
4:52 pm 16:52 Mostly Cloudy 86 30 70 21.1 59 59 SSW 9 15 29.72 1006 10 16 N/A
5:52 pm 17:52 Partly Cloudy 85 29.4 70 21.1 61 61 SSW 10 17 29.72 1007 10 16 N/A
6:52 pm 18:52 Mostly Cloudy 84 28.9 70 21.1 63 63 SSW 9 15 29.72 1006 10 16 N/A
7:52 pm 19:52 Mostly Cloudy 83 28.3 69 20.6 63 63 SSW 10 17 29.70 1006 10 16 N/A
8:52 pm 20:52 Mostly Cloudy 81 27.2 69 20.6 67 67 SSW 9 15 29.69 1006 10 16 N/A
9:52 pm 21:52 Partly Cloudy 79 26.1 69 20.6 72 72 SSW 7 11 29.69 1006 10 16 N/A
10:52 pm 22:52 Mostly Clear 77 25 68 20 74 74 S 7 11 29.71 1006 10 16 N/A
11:52 pm 23:52 Clear 75 23.9 68 20 79 79 S 7 11 29.70 1006 10 16 N/A

Powered by AerisWeather